Location: Arbon
(43.0005°N, 0.7472°E)
Time: 10:11:52
(UTC+00:00)

SR - Pass Details

Date: 02 December 2020
Orbit: 575 x 880 km, 66.7° (Epoch: 21 January)

Event Time Altitude Azimuth Distance (km) Brightness Sun altitude
Rises 02:30:16 0° 327° (NNW) 3,212 - -50.1°
Reaches altitude 10° 02:32:35 10° 327° (NNW) 2,328 - -49.7°
Maximum altitude 02:37:58 81° 241° (WSW) 835 - -48.8°
Drops below altitude 10° 02:43:44 10° 155° (SSE) 2,481 - -47.8°
Sets 02:46:15 0° 154° (SSE) 3,437 - -47.3°
